TimePDT,TemperatureF,Dew PointF,Humidity,Sea Level PressureIn,VisibilityMPH,Wind Direction,Wind SpeedMPH,Gust SpeedMPH,PrecipitationIn,Events,Conditions,WindDirDegrees,DateUTC
12:14 AM,60.8,60.8,100,30.01,1.8,Calm,Calm,-,N/A,,Overcast,0,2013-06-26 07:14:00
12:48 AM,60.8,59.0,94,30.00,2.5,ESE,3.5,-,N/A,,Overcast,110,2013-06-26 07:48:00
12:53 AM,61.0,59.0,93,30.00,1.8,ESE,3.5,-,N/A,,Overcast,120,2013-06-26 07:53:00
1:07 AM,60.8,59.0,94,30.01,2.0,SE,3.5,-,N/A,,Overcast,130,2013-06-26 08:07:00
1:17 AM,60.8,59.0,94,30.00,1.5,SE,3.5,-,N/A,,Overcast,130,2013-06-26 08:17:00
1:40 AM,60.8,59.0,94,30.01,1.2,Calm,Calm,-,N/A,,Overcast,0,2013-06-26 08:40:00
1:53 AM,60.1,59.0,96,30.01,1.2,Calm,Calm,-,N/A,,Overcast,0,2013-06-26 08:53:00
2:34 AM,60.8,60.8,100,30.00,1.5,Calm,Calm,-,N/A,,Overcast,0,2013-06-26 09:34:00
2:53 AM,61.0,60.1,97,29.99,2.5,Calm,Calm,-,N/A,,Overcast,0,2013-06-26 09:53:00
3:16 AM,60.8,60.8,100,30.00,6.0,Calm,Calm,-,N/A,,Overcast,0,2013-06-26 10:16:00
3:53 AM,61.0,59.0,93,29.99,10.0,Calm,Calm,-,N/A,,Overcast,0,2013-06-26 10:53:00
4:53 AM,61.0,59.0,93,30.00,3.0,Calm,Calm,-,N/A,,Overcast,0,2013-06-26 11:53:00
4:59 AM,60.8,59.0,94,30.01,1.8,Calm,Calm,-,N/A,,Overcast,0,2013-06-26 11:59:00
5:06 AM,60.8,59.0,94,30.01,0.8,Calm,Calm,-,N/A,,Mist,0,2013-06-26 12:06:00
5:19 AM,60.8,59.0,94,30.01,1.0,Calm,Calm,-,N/A,,Mist,0,2013-06-26 12:19:00
5:41 AM,60.8,59.0,94,30.02,0.8,Calm,Calm,-,N/A,,Mist,0,2013-06-26 12:41:00
5:53 AM,60.1,59.0,96,30.02,1.0,Calm,Calm,-,N/A,,Mist,0,2013-06-26 12:53:00
6:05 AM,60.8,59.0,94,30.03,2.0,Calm,Calm,-,N/A,,Overcast,0,2013-06-26 13:05:00
6:14 AM,60.8,59.0,94,30.03,8.0,Calm,Calm,-,N/A,,Overcast,0,2013-06-26 13:14:00
6:24 AM,60.8,59.0,94,30.03,9.0,Calm,Calm,-,N/A,,Overcast,0,2013-06-26 13:24:00
6:53 AM,61.0,59.0,93,30.04,10.0,Calm,Calm,-,N/A,,Overcast,0,2013-06-26 13:53:00
7:53 AM,63.0,60.1,90,30.05,10.0,Calm,Calm,-,N/A,,Overcast,0,2013-06-26 14:53:00
8:53 AM,66.9,61.0,81,30.06,10.0,Calm,Calm,-,N/A,,Overcast,0,2013-06-26 15:53:00
9:34 AM,69.8,60.8,73,30.05,10.0,Calm,Calm,-,N/A,,Mostly Cloudy,0,2013-06-26 16:34:00
9:43 AM,71.6,60.8,69,30.06,10.0,Calm,Calm,-,N/A,,Scattered Clouds,0,2013-06-26 16:43:00
9:53 AM,70.0,61.0,73,30.05,10.0,Calm,Calm,-,N/A,,Partly Cloudy,0,2013-06-26 16:53:00
10:53 AM,75.0,61.0,62,30.05,10.0,Variable,3.5,-,N/A,,Clear,0,2013-06-26 17:53:00
11:53 AM,78.1,62.1,58,30.04,10.0,Variable,5.8,-,N/A,,Clear,0,2013-06-26 18:53:00
12:53 PM,78.1,60.1,54,30.04,10.0,WSW,12.7,-,N/A,,Clear,250,2013-06-26 19:53:00
1:53 PM,80.1,60.1,50,30.02,10.0,West,11.5,-,N/A,,Clear,260,2013-06-26 20:53:00
2:53 PM,82.0,60.1,47,30.01,10.0,SW,10.4,-,N/A,,Clear,220,2013-06-26 21:53:00
3:53 PM,82.9,59.0,44,30.01,10.0,SW,9.2,-,N/A,,Clear,230,2013-06-26 22:53:00
4:53 PM,82.0,57.9,44,29.99,10.0,SW,8.1,-,N/A,,Clear,220,2013-06-26 23:53:00
5:53 PM,75.9,57.9,54,29.99,10.0,SSE,10.4,-,N/A,,Clear,160,2013-06-27 00:53:00
6:53 PM,66.9,57.9,73,30.01,10.0,SSE,8.1,-,N/A,,Clear,150,2013-06-27 01:53:00
7:53 PM,63.0,57.0,81,30.01,10.0,South,6.9,-,N/A,,Clear,170,2013-06-27 02:53:00
8:53 PM,62.1,57.9,86,30.02,10.0,SSE,4.6,-,N/A,,Clear,150,2013-06-27 03:53:00
9:53 PM,62.1,57.9,86,30.04,10.0,ESE,3.5,-,N/A,,Clear,110,2013-06-27 04:53:00
10:53 PM,63.0,57.9,84,30.05,10.0,Calm,Calm,-,N/A,,Clear,0,2013-06-27 05:53:00
11:53 PM,63.0,57.0,81,30.06,10.0,Calm,Calm,-,N/A,,Clear,0,2013-06-27 06:53:00